Total_Precipitation_Accumulation
0.00 0.00 0.00 0.00 0.00 0.00 0.00 0.00 0.00 0.00 0.00 0.00 0.00 0.01 0.02 0.02 0.06 0.10 0.07 0.18 0.24 0.19 0.30 0.45 0.75 1.09 1.22 1.59 1.48 1.07 0.77 0.64 0.64 0.70 0.75 0.86 1.02 1.15 1.26 1.38 1.38 1.35 1.31 1.35
0.00 0.00 0.00 0.00 0.00 0.00 0.00 0.00 0.00 0.00 0.00 0.00 0.02 0.04 0.07 0.08 0.06 0.09 0.07 0.13 0.16 0.18 0.33 0.46 0.67 0.87 0.96 1.04 1.13 1.16 1.11 1.04 1.05 1.23 1.44 1.76 1.97 2.05 2.17 2.21 2.18 2.16 2.13 2.07
0.00 0.00 0.00 0.00 0.00 0.00 0.00 0.00 0.00 0.00 0.00 0.00 0.03 0.06 0.07 0.05 0.03 0.06 0.09 0.15 0.12 0.19 0.37 0.47 0.59 0.59 0.78 1.03 1.17 1.23 1.27 1.37 1.53 1.79 2.01 2.41 2.69 2.78 2.68 2.49 2.49 2.44 2.28 2.18
0.00 0.00 0.00 0.00 0.00 0.00 0.00 0.00 0.00 0.00 0.00 0.00 0.02 0.06 0.06 0.05 0.04 0.08 0.12 0.13 0.11 0.16 0.30 0.39 0.50 0.48 0.60 0.93 1.13 1.18 1.33 1.63 1.96 2.38 2.67 2.85 3.07 3.07 2.91 2.69 2.50 2.30 2.09 1.91
0.00 0.00 0.00 0.00 0.00 0.00 0.00 0.00 0.00 0.00 0.00 0.00 0.00 0.03 0.08 0.08 0.08 0.12 0.12 0.11 0.13 0.15 0.27 0.37 0.37 0.40 0.55 0.80 1.03 1.16 1.39 1.80 2.28 2.70 3.00 3.15 3.16 3.03 2.81 2.52 2.27 2.08 1.90 1.71
0.00 0.00 0.00 0.00 0.00 0.00 0.00 0.00 0.00 0.00 0.00 0.00 0.00 0.02 0.07 0.12 0.14 0.14 0.12 0.12 0.16 0.16 0.25 0.32 0.34 0.36 0.49 0.72 0.96 1.15 1.46 1.96 2.31 2.62 2.94 2.97 2.94 2.82 2.64 2.41 2.18 2.00 1.81 1.63
0.01 0.01 0.00 0.00 0.00 0.00 0.00 0.00 0.00 0.00 0.00 0.00 0.00 0.03 0.14 0.17 0.21 0.16 0.15 0.16 0.20 0.17 0.22 0.32 0.37 0.41 0.56 0.78 1.01 1.27 1.59 1.93 2.11 2.18 2.30 2.41 2.41 2.35 2.30 2.19 1.99 1.73 1.49 1.25
0.06 0.03 0.01 0.00 0.00 0.00 0.00 0.00 0.00 0.00 0.01 0.01 0.02 0.10 0.26 0.24 0.25 0.22 0.18 0.18 0.20 0.21 0.25 0.33 0.40 0.48 0.62 0.77 0.93 1.12 1.30 1.50 1.63 1.64 1.71 1.85 1.92 1.91 1.85 1.68 1.46 1.24 1.04 0.86
0.06 0.04 0.01 0.00 0.00 0.00 0.00 0.00 0.00 0.00 0.01 0.03 0.08 0.20 0.32 0.32 0.30 0.30 0.26 0.25 0.27 0.29 0.34 0.42 0.48 0.56 0.65 0.72 0.77 0.82 0.87 0.93 1.04 1.13 1.16 1.17 1.17 1.17 1.17 1.09 0.96 0.86 0.77 0.65
0.02 0.04 0.01 0.00 0.00 0.00 0.00 0.00 0.00 0.01 0.02 0.05 0.09 0.22 0.38 0.40 0.38 0.36 0.35 0.35 0.34 0.34 0.39 0.46 0.50 0.52 0.53 0.51 0.52 0.53 0.54 0.61 0.65 0.66 0.66 0.68 0.70 0.72 0.72 0.65 0.61 0.58 0.57 0.53
0.01 0.04 0.02 0.01 0.01 0.01 0.00 0.01 0.00 0.01 0.02 0.05 0.10 0.31 0.49 0.63 0.66 0.62 0.52 0.45 0.36 0.39 0.46 0.46 0.45 0.42 0.38 0.34 0.33 0.34 0.35 0.36 0.36 0.38 0.40 0.43 0.45 0.45 0.46 0.45 0.43 0.40 0.39 0.39
0.01 0.04 0.06 0.04 0.02 0.01 0.01 0.01 0.01 0.02 0.04 0.06 0.11 0.37 0.49 0.72 0.84 0.83 0.63 0.50 0.47 0.46 0.47 0.43 0.41 0.37 0.33 0.30 0.28 0.27 0.27 0.28 0.28 0.25 0.24 0.27 0.29 0.28 0.28 0.30 0.32 0.31 0.31 0.31
0.02 0.08 0.16 0.14 0.09 0.04 0.03 0.03 0.02 0.03 0.03 0.05 0.15 0.47 0.57 0.71 0.83 0.79 0.65 0.60 0.64 0.66 0.64 0.56 0.45 0.38 0.33 0.30 0.28 0.26 0.27 0.26 0.24 0.21 0.20 0.20 0.20 0.21 0.21 0.22 0.22 0.23 0.23 0.23
0.03 0.08 0.18 0.32 0.27 0.12 0.07 0.04 0.04 0.06 0.09 0.12 0.23 0.49 0.59 0.69 0.80 0.86 0.85 0.82 0.82 0.84 0.76 0.62 0.52 0.45 0.38 0.34 0.32 0.31 0.29 0.26 0.23 0.20 0.17 0.17 0.18 0.19 0.19 0.19 0.20 0.20 0.20 0.21
0.03 0.08 0.11 0.16 0.15 0.11 0.09 0.07 0.09 0.11 0.14 0.21 0.34 0.56 0.73 0.91 0.98 1.03 1.07 1.02 0.93 0.88 0.79 0.68 0.62 0.55 0.46 0.41 0.38 0.34 0.32 0.28 0.22 0.19 0.18 0.20 0.22 0.24 0.24 0.24 0.24 0.24 0.24 0.22
0.02 0.05 0.09 0.13 0.12 0.12 0.12 0.10 0.11 0.15 0.20 0.29 0.47 0.73 0.94 1.09 1.09 1.13 1.17 1.09 1.04 0.97 0.94 0.91 0.85 0.75 0.64 0.53 0.46 0.41 0.37 0.34 0.30 0.31 0.33 0.33 0.32 0.31 0.31 0.30 0.29 0.29 0.27 0.23
0.03 0.05 0.07 0.11 0.09 0.14 0.26 0.23 0.19 0.24 0.31 0.41 0.58 0.71 0.84 0.95 1.06 1.08 1.08 1.10 1.16 1.24 1.22 1.12 0.97 0.85 0.74 0.65 0.59 0.56 0.52 0.49 0.48 0.46 0.43 0.40 0.36 0.35 0.32 0.29 0.30 0.29 0.24 0.19
0.05 0.09 0.10 0.10 0.14 0.27 0.33 0.23 0.25 0.37 0.47 0.48 0.54 0.59 0.73 0.85 0.95 0.99 1.02 1.09 1.18 1.23 1.18 1.06 0.90 0.81 0.76 0.75 0.73 0.66 0.58 0.53 0.51 0.49 0.46 0.39 0.32 0.28 0.27 0.28 0.26 0.20 0.16 0.14
0.04 0.12 0.19 0.19 0.24 0.36 0.46 0.28 0.26 0.41 0.54 0.45 0.51 0.52 0.65 0.71 0.77 0.90 0.97 1.04 1.11 1.07 0.98 0.91 0.84 0.82 0.85 0.82 0.75 0.67 0.60 0.54 0.49 0.45 0.37 0.28 0.23 0.22 0.20 0.19 0.16 0.14 0.14 0.13
0.07 0.13 0.27 0.33 0.38 0.49 0.53 0.27 0.23 0.41 0.68 0.53 0.56 0.53 0.54 0.60 0.79 0.83 0.82 0.79 0.82 0.84 0.86 0.88 0.91 0.94 0.90 0.79 0.65 0.57 0.50 0.43 0.35 0.28 0.22 0.19 0.16 0.13 0.11 0.12 0.12 0.12 0.12 0.10
0.23 0.26 0.36 0.48 0.60 0.64 0.32 0.15 0.28 0.60 0.66 0.56 0.58 0.60 0.57 0.59 0.65 0.57 0.57 0.64 0.72 0.78 0.82 0.85 0.85 0.80 0.72 0.61 0.52 0.48 0.41 0.33 0.23 0.17 0.14 0.12 0.09 0.07 0.07 0.09 0.11 0.11 0.10 0.10
0.36 0.45 0.50 0.56 0.68 0.73 0.31 0.19 0.37 0.47 0.39 0.41 0.46 0.49 0.47 0.47 0.48 0.50 0.51 0.55 0.62 0.72 0.76 0.72 0.66 0.59 0.49 0.40 0.37 0.36 0.29 0.19 0.12 0.10 0.08 0.06 0.05 0.03 0.04 0.09 0.11 0.11 0.12 0.11
0.36 0.41 0.55 0.66 0.75 0.56 0.30 0.26 0.29 0.34 0.35 0.34 0.40 0.41 0.42 0.46 0.49 0.56 0.61 0.62 0.61 0.59 0.59 0.52 0.43 0.36 0.28 0.23 0.24 0.23 0.16 0.11 0.09 0.10 0.09 0.07 0.05 0.05 0.05 0.08 0.10 0.10 0.10 0.09
0.50 0.34 0.43 0.57 0.64 0.45 0.30 0.25 0.24 0.25 0.27 0.29 0.38 0.41 0.40 0.41 0.40 0.44 0.50 0.52 0.50 0.45 0.39 0.32 0.26 0.22 0.18 0.14 0.12 0.10 0.07 0.07 0.10 0.12 0.10 0.09 0.10 0.10 0.08 0.08 0.06 0.07 0.07 0.06
0.46 0.47 0.54 0.65 0.64 0.51 0.40 0.29 0.25 0.28 0.29 0.34 0.38 0.37 0.33 0.29 0.27 0.27 0.29 0.30 0.28 0.25 0.21 0.18 0.16 0.13 0.09 0.06 0.06 0.05 0.04 0.05 0.10 0.11 0.09 0.09 0.09 0.10 0.10 0.09 0.04 0.03 0.04 0.02
0.34 0.43 0.61 0.77 0.63 0.50 0.48 0.39 0.33 0.33 0.30 0.27 0.23 0.24 0.26 0.25 0.24 0.23 0.23 0.22 0.19 0.15 0.12 0.11 0.10 0.07 0.05 0.04 0.03 0.02 0.02 0.04 0.09 0.11 0.09 0.06 0.07 0.07 0.08 0.12 0.10 0.02 0.01 0.01